• In Belarus
  • List of Countries
  • For 7 days
  • Water Temperature
  • Satellite Maps
  • Weather Map
  • Weather Widgets
  • user-avatar
    Login

    Hourly Weather Wiewierz

    Today, 17 February, Sunday

    Time Temperature Precipitation Wind Pressure Humidity
    00:00 +4°C° 0 mm 3 mps 760 mmHg 63%
    01:00 +4°C° 0 mm 3 mps 760 mmHg 63%
    02:00 +4°C° 0 mm 3 mps 760 mmHg 67%
    03:00 +3°C° 0 mm 3 mps 760 mmHg 71%
    04:00 +3°C° 0 mm 3 mps 760 mmHg 75%
    05:00 +3°C° 0 mm 3 mps 760 mmHg 77%
    06:00 +2°C° 0 mm 3 mps 760 mmHg 79%
    07:00 +2°C° 0 mm 2 mps 760 mmHg 80%
    08:00 +4°C° 0 mm 2 mps 760 mmHg 75%
    09:00 +5°C° 0 mm 2 mps 760 mmHg 70%
    10:00 +6°C° 0 mm 2 mps 760 mmHg 65%
    11:00 +8°C° 0 mm 2 mps 760 mmHg 61%
    12:00 +9°C° 0 mm 2 mps 760 mmHg 56%
    13:00 +12°C° 0 mm 2 mps 760 mmHg 50%
    14:00 +12°C° 0 mm 1 mps 760 mmHg 52%
    15:00 +12°C° 0 mm 1 mps 760 mmHg 55%
    16:00 +11°C° 0 mm 0 mps 759 mmHg 57%
    17:00 +10°C° 0 mm 0 mps 759 mmHg 59%
    18:00 +10°C° 0 mm 1 mps 759 mmHg 62%
    19:00 +8°C° 0 mm 1 mps 759 mmHg 65%
    20:00 +8°C° 0 mm 1 mps 759 mmHg 67%
    21:00 +7°C° 0 mm 1 mps 759 mmHg 69%
    22:00 +7°C° 0 mm 1 mps 759 mmHg 71%
    23:00 +7°C° 0 mm 1 mps 759 mmHg 73%

    Tomorrow, 18 February, Monday

    Time Temperature Precipitation Wind Pressure Humidity
    00:00 +6°C° 0 mm 1 mps 759 mmHg 74%
    01:00 +6°C° 0 mm 1 mps 759 mmHg 75%
    02:00 +5°C° 0 mm 1 mps 759 mmHg 75%
    03:00 +5°C° 0 mm 1 mps 759 mmHg 74%
    04:00 +5°C° 0 mm 1 mps 758 mmHg 73%
    05:00 +4°C° 0 mm 1 mps 758 mmHg 71%
    06:00 +4°C° 0 mm 1 mps 758 mmHg 70%
    07:00 +4°C° 0 mm 1 mps 758 mmHg 68%
    08:00 +5°C° 0 mm 1 mps 758 mmHg 63%
    09:00 +7°C° 0 mm 1 mps 758 mmHg 58%
    10:00 +8°C° 0 mm 1 mps 758 mmHg 53%
    11:00 +9°C° 0 mm 1 mps 758 mmHg 50%
    12:00 +11°C° 0 mm 1 mps 758 mmHg 46%
    13:00 +12°C° 0 mm 1 mps 757 mmHg 42%
    14:00 +12°C° 0 mm 1 mps 757 mmHg 44%
    15:00 +12°C° 0 mm 1 mps 757 mmHg 47%
    16:00 +12°C° 0 mm 1 mps 756 mmHg 49%
    17:00 +9°C° 0 mm 2 mps 756 mmHg 53%
    18:00 +8°C° 0 mm 2 mps 756 mmHg 57%
    19:00 +7°C° 0 mm 2 mps 756 mmHg 61%
    20:00 +6°C° 0 mm 2 mps 756 mmHg 63%
    21:00 +6°C° 0 mm 2 mps 756 mmHg 66%
    22:00 +5°C° 0 mm 2 mps 755 mmHg 68%
    23:00 +5°C° 0 mm 2 mps 755 mmHg 67%

    Day after tomorrow, 19 February, Tuesday

    Time Temperature Precipitation Wind Pressure Humidity
    00:00 +4°C° 0 mm 2 mps 755 mmHg 67%
    01:00 +4°C° 0 mm 2 mps 755 mmHg 66%
    02:00 +4°C° 0 mm 2 mps 755 mmHg 67%
    03:00 +3°C° 0 mm 2 mps 754 mmHg 67%
    04:00 +3°C° 0 mm 2 mps 754 mmHg 68%
    05:00 +3°C° 0 mm 2 mps 754 mmHg 69%
    06:00 +2°C° 0 mm 3 mps 754 mmHg 70%
    07:00 +1°C° 0 mm 3 mps 753 mmHg 71%
    08:00 +3°C° 0 mm 3 mps 753 mmHg 66%
    09:00 +5°C° 0 mm 3 mps 753 mmHg 60%
    10:00 +7°C° 0 mm 4 mps 753 mmHg 55%
    11:00 +8°C° 0 mm 4 mps 753 mmHg 52%
    12:00 +9°C° 0 mm 5 mps 753 mmHg 49%
    13:00 +12°C° 0 mm 5 mps 753 mmHg 46%
    14:00 +10°C° 0 mm 5 mps 752 mmHg 50%
    15:00 +11°C° 0 mm 4 mps 752 mmHg 54%
    16:00 +11°C° 0 mm 4 mps 752 mmHg 59%
    17:00 +10°C° 0.3 mm 4 mps 752 mmHg 66%
    18:00 +8°C° 0.3 mm 5 mps 753 mmHg 74%
    19:00 +7°C° 0.3 mm 5 mps 753 mmHg 82%
    20:00 +6°C° 0.5 mm 5 mps 753 mmHg 83%
    21:00 +6°C° 0.5 mm 5 mps 754 mmHg 84%
    22:00 +6°C° 0.5 mm 5 mps 754 mmHg 85%
    23:00 +5°C° 0 mm 5 mps 754 mmHg 85%

    20 February, Wednesday

    Time Temperature Precipitation Wind Pressure Humidity
    00:00 +3°C° 0 mm 5 mps 755 mmHg 86%
    01:00 +3°C° 0 mm 5 mps 755 mmHg 87%
    02:00 +2°C° 0 mm 5 mps 755 mmHg 88%
    03:00 +2°C° 0 mm 5 mps 755 mmHg 90%
    04:00 +2°C° 0 mm 5 mps 755 mmHg 91%
    05:00 +3°C° 0 mm 4 mps 756 mmHg 91%
    06:00 +3°C° 0 mm 4 mps 756 mmHg 90%
    07:00 +3°C° 0 mm 4 mps 756 mmHg 90%
    08:00 +3°C° 0 mm 5 mps 756 mmHg 86%
    09:00 +3°C° 0 mm 5 mps 757 mmHg 82%
    10:00 +4°C° 0 mm 6 mps 757 mmHg 78%
    11:00 +5°C° 0 mm 6 mps 757 mmHg 74%
    12:00 +5°C° 0 mm 6 mps 757 mmHg 70%
    13:00 +7°C° 0 mm 6 mps 757 mmHg 66%
    14:00 +7°C° 0 mm 6 mps 757 mmHg 66%
    15:00 +7°C° 0 mm 5 mps 757 mmHg 66%
    16:00 +6°C° 0 mm 5 mps 758 mmHg 66%
    17:00 +6°C° 0 mm 4 mps 758 mmHg 70%
    18:00 +5°C° 0 mm 4 mps 758 mmHg 73%
    19:00 +5°C° 0 mm 3 mps 759 mmHg 77%
    20:00 +4°C° 0 mm 3 mps 759 mmHg 79%
    21:00 +4°C° 0 mm 3 mps 759 mmHg 81%
    22:00 +4°C° 0 mm 3 mps 759 mmHg 83%
    23:00 +3°C° 0 mm 3 mps 759 mmHg 85%

    21 February, Thursday

    Time Temperature Precipitation Wind Pressure Humidity
    00:00 +3°C° 0 mm 3 mps 760 mmHg 86%
    01:00 +3°C° 0 mm 3 mps 760 mmHg 87%
    02:00 +3°C° 0 mm 3 mps 760 mmHg 88%
    03:00 +3°C° 0 mm 3 mps 760 mmHg 88%
    04:00 +3°C° 0 mm 3 mps 760 mmHg 88%
    05:00 +3°C° 0 mm 3 mps 760 mmHg 88%
    06:00 +3°C° 0 mm 3 mps 760 mmHg 88%
    07:00 +3°C° 0 mm 3 mps 760 mmHg 87%
    08:00 +3°C° 0 mm 3 mps 760 mmHg 83%
    09:00 +4°C° 0 mm 4 mps 760 mmHg 80%
    10:00 +5°C° 0 mm 4 mps 760 mmHg 76%
    11:00 +6°C° 0 mm 4 mps 760 mmHg 73%
    12:00 +7°C° 0 mm 4 mps 760 mmHg 70%
    13:00 +8°C° 0 mm 5 mps 760 mmHg 67%
    14:00 +7°C° 0.1 mm 4 mps 760 mmHg 71%
    15:00 +7°C° 0.1 mm 4 mps 760 mmHg 75%
    16:00 +6°C° 0.1 mm 4 mps 760 mmHg 80%
    17:00 +7°C° 0.1 mm 3 mps 760 mmHg 82%
    18:00 +7°C° 0.1 mm 3 mps 761 mmHg 85%
    19:00 +5°C° 0.1 mm 3 mps 761 mmHg 88%
    20:00 +6°C° 0.1 mm 2 mps 761 mmHg 90%
    21:00 +6°C° 0.1 mm 2 mps 761 mmHg 92%
    22:00 +6°C° 0.1 mm 2 mps 762 mmHg 95%
    23:00 +6°C° 0.2 mm 2 mps 762 mmHg 95%

    22 February, Friday

    Time Temperature Precipitation Wind Pressure Humidity
    00:00 +6°C° 0.2 mm 2 mps 762 mmHg 96%
    01:00 +5°C° 0.2 mm 2 mps 762 mmHg 96%
    02:00 +5°C° 0 mm 2 mps 763 mmHg 97%
    03:00 +6°C° 0 mm 1 mps 763 mmHg 97%
    04:00 +5°C° 0 mm 1 mps 763 mmHg 97%
    05:00 +6°C° 0 mm 1 mps 764 mmHg 97%
    06:00 +5°C° 0 mm 2 mps 765 mmHg 97%
    07:00 +5°C° 0 mm 2 mps 765 mmHg 97%
    08:00 +6°C° 0 mm 2 mps 766 mmHg 94%
    09:00 +6°C° 0 mm 2 mps 767 mmHg 91%
    10:00 +7°C° 0 mm 2 mps 767 mmHg 87%
    11:00 +8°C° 0 mm 2 mps 768 mmHg 83%
    12:00 +8°C° 0 mm 2 mps 768 mmHg 78%
    13:00 +9°C° 0 mm 2 mps 768 mmHg 74%
    14:00 +9°C° 0 mm 2 mps 769 mmHg 74%
    15:00 +9°C° 0 mm 2 mps 769 mmHg 75%
    16:00 +9°C° 0 mm 2 mps 769 mmHg 76%
    17:00 +8°C° 0 mm 2 mps 770 mmHg 79%
    18:00 +7°C° 0 mm 2 mps 770 mmHg 83%
    19:00 +7°C° 0 mm 2 mps 771 mmHg 87%
    20:00 +6°C° 0 mm 2 mps 771 mmHg 87%
    21:00 +7°C° 0 mm 1 mps 771 mmHg 88%
    22:00 +7°C° 0 mm 1 mps 771 mmHg 89%
    23:00 +6°C° 0 mm 1 mps 772 mmHg 88%
    Show more